This is the latest recevied weather packets stored in our database for station/object KGRR-WX. If no packets are shown the sender has not sent any weather packets the latest 10 day(s).
| Time | Temp. | Humidity | Pressure | Rain* | Wind** | Luminosity | Snow |
|---|---|---|---|---|---|---|---|
| 1777812306 | 7.78° C | 70% | 983.9 hPa | 0 mm | - | - | - |
| 1777811422 | 6.67° C | 71% | 984.7 hPa | 0 mm | - | - | - |
| 1777810506 | 6.67° C | 71% | 984.6 hPa | 0 mm | - | - | - |
| 1777809627 | 5.56° C | 71% | 984.6 hPa | 0 mm | - | - | - |
| 1777808706 | 4.44° C | 72% | 984.9 hPa | 0 mm | - | - | - |
| 1777807814 | 3.89° C | 72% | 983.7 hPa | 0 mm | - | - | - |
| 1777806905 | 3.89° C | 72% | 983.8 hPa | 0 mm | - | - | - |
| 1777806025 | 3.89° C | 72% | 983.8 hPa | 0 mm | - | - | - |
| 1777805106 | 3.33° C | 69% | 983.6 hPa | 0 mm | - | - | - |
| 1777804214 | 3.33° C | 71% | 983.9 hPa | 0 mm | - | - | - |
| 1777803305 | 2.78° C | 71% | 983.9 hPa | 0 mm | - | - | - |
| 1777802427 | 2.78° C | 71% | 983.9 hPa | 0 mm | - | - | - |
| 1777801505 | 2.78° C | 66% | 984.2 hPa | 0 mm | - | - | - |
| 1777800622 | 2.78° C | 67% | 984.2 hPa | 0 mm | - | - | - |
| 1777799705 | 2.22° C | 67% | 984.1 hPa | 0 mm | - | - | - |
| 1777798824 | 2.22° C | 67% | 984.1 hPa | 0 mm | - | - | - |
| 1777797905 | 2.22° C | 67% | 984.4 hPa | 0 mm | - | - | - |
| 1777797021 | 2.22° C | 70% | 984.5 hPa | 0 mm | - | - | - |
| 1777796105 | 1.67° C | 70% | 984.5 hPa | 0 mm | - | - | - |
| 1777795217 | 1.67° C | 69% | 984 hPa | 0 mm | - | - | - |
| 1777794306 | 1.67° C | 69% | 984.8 hPa | 0 mm | - | - | - |
| 1777793422 | 1.67° C | 69% | 984.8 hPa | 0 mm | - | - | - |
| 1777792506 | 1.67° C | 69% | 984.8 hPa | 0 mm | - | - | - |
| 1777791625 | 1.67° C | 69% | 984.8 hPa | 0 mm | - | - | - |
| 1777790705 | 1.67° C | 66% | 985.8 hPa | 0 mm | - | - | - |
* Rain latest hour (hover to see other rain measurements)
** Current wind speed in m/s (hover to see current wind gust speed)